Date,TemperatureHighF,TemperatureAvgF,TemperatureLowF,DewpointHighF,DewpointAvgF,DewpointLowF,HumidityHigh,HumidityAvg,HumidityLow,PressureMaxIn,PressureMinIn,WindSpeedMaxMPH,WindSpeedAvgMPH,GustSpeedMaxMPH,PrecipitationSumIn
2013-1-1,29.0,17.5,11.0,9.0,5.2,2.0,68,59,42,0.00,40.00,7,3,10,0.00
2013-1-2,24.0,11.1,5.0,4.0,-0.4,-4.0,68,60,41,0.00,40.00,7,2,10,0.01
2013-1-3,19.0,10.5,3.0,2.0,-1.8,-6.0,65,57,45,0.00,40.00,5,1,10,0.01
2013-1-4,31.0,17.7,10.0,8.0,2.2,-2.0,58,51,33,0.00,40.00,6,2,17,0.00
2013-1-5,32.0,23.0,15.0,12.0,8.5,6.0,69,54,39,0.00,40.00,15,4,22,0.00
2013-1-6,36.0,25.7,19.0,17.0,10.8,6.0,58,53,42,0.00,40.00,9,2,20,0.00
2013-1-7,39.0,32.6,26.0,21.0,15.1,11.0,56,49,38,0.00,40.00,18,8,29,0.00
2013-1-8,41.0,37.6,34.0,22.0,15.5,4.0,50,41,25,0.00,40.00,37,10,60,0.00
2013-1-9,44.0,40.4,36.0,21.0,18.7,16.0,48,41,37,0.00,40.00,22,14,35,0.00
2013-1-10,42.0,25.6,11.0,31.0,13.3,-2.0,91,61,37,0.00,40.00,25,14,41,0.00
2013-1-11,11.0,7.9,5.0,-2.0,-6.3,-9.0,67,52,40,0.00,40.00,24,16,39,0.00
2013-1-12,9.0,2.2,-4.0,-4.0,-8.9,-16.0,67,59,52,0.00,40.00,11,2,21,0.00
2013-1-13,13.0,3.3,-2.0,-5.0,-8.0,-11.0,65,58,41,0.00,40.00,5,1,10,0.00
2013-1-14,10.0,4.2,-5.0,2.0,-6.6,-16.0,70,60,49,0.00,40.00,6,1,10,0.00
2013-1-15,27.0,17.8,10.0,12.0,8.1,2.0,73,66,50,0.00,40.00,6,1,9,0.00
2013-1-16,37.0,22.8,15.0,14.0,9.2,6.0,72,57,38,0.00,40.00,8,3,15,0.00
2013-1-17,36.0,22.8,14.0,11.0,8.5,4.0,66,55,35,0.00,40.00,6,2,17,0.00
2013-1-18,47.0,34.0,22.0,14.0,10.3,5.0,57,39,21,0.00,40.00,16,5,27,0.02
2013-1-19,40.0,31.4,26.0,16.0,10.6,5.0,51,42,29,0.00,40.00,7,2,19,0.02
2013-1-20,33.0,25.8,19.0,13.0,11.3,10.0,68,54,41,0.00,40.00,15,4,32,0.00
2013-1-21,47.0,27.7,18.0,16.0,11.3,8.0,70,51,28,0.00,40.00,6,2,11,0.00
2013-1-22,33.0,26.3,19.0,11.0,8.1,3.0,60,46,37,0.00,40.00,5,2,12,0.00
2013-1-23,43.0,32.3,26.0,16.0,11.4,9.0,49,42,27,0.00,40.00,12,4,23,0.00
2013-1-24,47.0,38.4,32.0,26.0,17.8,12.0,54,44,33,0.00,40.00,18,5,30,0.00
2013-1-25,45.0,37.9,29.0,23.0,19.3,16.0,58,47,37,0.00,40.00,17,10,25,0.00
2013-1-26,54.0,40.6,31.0,29.0,24.9,21.0,91,56,36,0.00,40.00,13,7,30,0.00
2013-1-27,37.0,29.3,23.0,29.0,19.0,8.0,95,67,35,0.00,40.00,10,2,20,0.01
2013-1-28,32.0,25.5,18.0,13.0,8.9,3.0,59,49,39,0.00,40.00,14,5,24,0.01
2013-1-29,26.0,17.6,9.0,16.0,4.0,-5.0,74,55,44,0.00,40.00,23,7,37,0.00
2013-1-30,42.0,26.3,11.0,22.0,12.8,1.0,73,58,36,0.00,40.00,28,8,46,0.01
2013-1-31,45.0,38.8,34.0,24.0,20.8,18.0,56,48,37,0.00,40.00,10,5,24,0.01
2013-2-1,45.0,37.5,32.0,27.0,17.7,11.0,77,46,27,0.00,40.00,14,5,32,0.00
2013-2-2,44.0,34.1,27.0,19.0,15.2,11.0,56,46,37,0.00,40.00,11,4,20,0.00
2013-2-3,45.0,31.9,25.0,20.0,15.1,12.0,62,50,33,0.00,40.00,7,3,12,0.00
2013-2-4,42.0,37.4,31.0,19.0,16.4,9.0,57,42,26,0.00,40.00,20,5,28,0.00
2013-2-5,48.0,37.5,32.0,26.0,20.8,16.0,60,51,39,0.00,40.00,19,5,25,0.00
2013-2-6,42.0,34.5,30.0,22.0,15.4,10.0,61,46,31,0.00,40.00,11,5,26,0.00
2013-2-7,41.0,33.9,30.0,14.0,10.8,8.0,46,38,28,0.00,40.00,17,11,26,0.00
2013-2-8,41.0,29.8,23.0,17.0,14.3,12.0,63,52,37,0.00,40.00,5,3,10,0.00
2013-2-9,39.0,30.0,22.0,20.0,13.8,11.0,69,51,32,0.00,40.00,16,6,28,0.00
2013-2-10,30.0,25.2,14.0,16.0,7.5,3.0,60,47,35,0.00,40.00,20,12,35,0.00
2013-2-11,34.0,20.4,10.0,9.0,5.8,1.0,68,54,35,0.00,40.00,5,2,11,0.00
2013-2-12,37.0,28.4,20.0,23.0,15.4,7.0,74,58,43,0.00,40.00,8,3,14,0.00
2013-2-13,45.0,39.3,33.0,19.0,13.8,8.0,54,36,25,0.00,40.00,29,16,49,0.00
2013-2-14,36.0,27.6,21.0,17.0,14.5,11.0,76,58,36,0.00,40.00,14,4,32,0.00
2013-2-15,48.0,33.8,23.0,19.0,14.9,11.0,62,46,28,0.00,40.00,14,5,24,0.00
2013-2-16,52.0,37.8,24.0,21.0,16.8,14.0,69,45,24,0.00,40.00,20,10,30,0.00
2013-2-17,41.0,33.3,27.0,22.0,15.1,10.0,72,48,30,0.00,40.00,13,7,27,0.00
2013-2-18,41.0,30.2,23.0,21.0,11.9,-1.0,82,51,19,0.00,40.00,14,7,23,0.00
2013-2-19,40.0,31.4,25.0,12.0,8.0,3.0,51,37,26,0.00,40.00,14,8,22,0.00
2013-2-20,34.0,27.3,20.0,23.0,16.8,11.0,73,64,51,0.00,40.00,6,2,14,0.00
2013-2-21,33.0,26.4,16.0,15.0,6.9,0.0,68,45,25,0.00,40.00,11,5,22,0.00
2013-2-22,41.0,33.1,27.0,11.0,8.3,5.0,50,36,24,0.00,40.00,20,10,29,0.00
2013-2-23,38.0,32.4,25.0,22.0,9.4,-1.0,69,40,20,0.00,40.00,19,10,29,0.00
2013-2-24,40.0,30.1,20.0,14.0,7.8,3.0,61,41,22,0.00,40.00,10,5,17,0.00
2013-2-25,40.0,30.1,23.0,23.0,11.0,5.0,68,46,28,0.00,40.00,22,9,35,0.00
2013-2-26,38.0,30.0,25.0,13.0,8.4,3.0,52,40,29,0.00,40.00,13,6,23,0.00
2013-2-27,39.0,29.1,20.0,10.0,6.5,3.0,53,39,24,0.00,40.00,10,5,17,0.00
2013-2-28,44.0,32.4,25.0,26.0,11.6,7.0,66,43,28,0.00,40.00,10,3,17,0.00
2013-3-1,50.0,41.1,32.0,26.0,23.4,21.0,68,50,35,0.00,40.00,13,4,22,0.00
2013-3-2,60.0,42.5,34.0,23.0,22.1,20.0,59,45,22,0.00,40.00,15,4,23,0.00
2013-3-3,42.0,35.4,23.0,30.0,18.0,-5.0,74,51,16,0.00,40.00,43,12,61,0.01
2013-3-4,29.0,22.9,18.0,8.0,2.6,-1.0,51,41,32,0.00,40.00,19,10,33,0.01
2013-3-5,40.0,29.5,16.0,10.0,4.7,1.0,50,36,22,0.00,40.00,14,9,24,0.00
2013-3-6,45.0,32.2,25.0,28.0,17.5,10.0,77,55,37,0.00,40.00,17,3,27,0.00
2013-3-7,48.0,36.0,29.0,28.0,16.0,10.0,80,47,23,0.00,40.00,14,7,24,0.01
2013-3-8,48.0,33.9,24.0,17.0,13.0,6.0,60,43,22,0.00,40.00,6,3,12,0.00
2013-3-9,46.0,33.5,23.0,15.0,10.1,6.0,55,39,23,0.00,40.00,14,5,23,0.00
2013-3-10,49.0,36.6,24.0,17.0,13.3,8.0,62,40,21,0.00,40.00,6,3,16,0.00
2013-3-11,45.0,36.0,25.0,21.0,14.6,7.0,55,42,24,0.00,40.00,21,11,41,0.00
2013-3-12,48.0,29.8,20.0,20.0,14.1,11.0,66,53,27,0.00,40.00,7,3,16,0.00
2013-3-13,60.0,49.7,40.0,22.0,20.5,17.0,44,32,21,0.00,40.00,17,7,25,0.00
2013-3-14,65.0,51.5,41.0,25.0,21.1,16.0,42,31,18,0.00,40.00,17,6,26,0.00
2013-3-15,58.0,48.9,42.0,24.0,18.4,15.0,37,30,22,0.00,40.00,18,8,30,0.00
2013-3-16,52.0,42.4,35.0,22.0,16.2,6.0,49,36,16,0.00,40.00,8,3,24,0.00
2013-3-17,41.0,32.3,20.0,30.0,13.9,-3.0,88,50,18,0.00,40.00,28,8,51,0.00
2013-3-18,40.0,27.2,19.0,22.0,8.6,-4.0,83,48,15,0.00,40.00,18,8,40,0.00
2013-3-19,44.0,31.8,26.0,22.0,6.6,-5.0,83,41,13,0.00,40.00,11,5,28,0.00
2013-3-20,55.0,45.8,35.0,28.0,17.5,-4.0,71,34,17,0.00,40.00,24,17,41,0.01
2013-3-21,41.0,33.7,27.0,28.0,10.7,-3.0,80,42,18,0.00,40.00,14,8,30,0.02
2013-3-22,35.0,25.1,20.0,10.0,4.5,0.0,53,41,24,0.00,40.00,17,9,29,0.00
2013-3-23,33.0,22.0,13.0,6.0,1.5,-5.0,57,41,20,0.00,40.00,14,5,21,0.00
2013-3-24,40.0,24.2,11.0,8.0,2.9,-3.0,66,42,21,0.00,40.00,10,4,12,0.00
2013-3-25,48.0,32.8,21.0,1.0,-2.8,-7.0,35,23,10,0.00,40.00,22,9,29,0.00
2013-3-26,51.0,40.8,30.0,11.0,7.1,-1.0,33,25,17,0.00,40.00,11,5,16,0.00
2013-3-27,56.0,39.7,27.0,19.0,13.1,9.0,49,35,22,0.00,40.00,7,4,20,0.00
2013-3-28,59.0,52.6,44.0,26.0,24.6,23.0,49,34,27,0.00,40.00,13,6,18,0.00
2013-3-29,55.0,45.9,37.0,31.0,27.3,19.0,66,49,25,0.00,40.00,13,4,24,0.00
2013-3-30,58.0,47.1,37.0,26.0,18.1,-99.9,54,35,20,0.00,40.00,10,5,22,0.00
2013-3-31,56.0,47.2,34.0,21.0,17.8,14.0,46,32,23,0.00,40.00,15,8,25,0.00
2013-4-1,66.0,44.7,32.0,22.0,16.8,10.0,56,37,15,0.00,40.00,7,3,12,0.00
2013-4-2,66.0,48.1,32.0,25.0,17.5,10.0,44,31,17,0.00,40.00,10,4,15,0.00
2013-4-3,59.0,51.5,44.0,28.0,23.1,19.0,44,33,23,0.00,40.00,12,5,19,0.00
2013-4-4,66.0,52.6,40.0,30.0,24.7,19.0,50,35,18,0.00,40.00,17,5,28,0.00
2013-4-5,61.0,51.5,44.0,32.0,24.7,15.0,57,37,19,0.00,40.00,15,7,27,0.00
2013-4-6,59.0,45.2,38.0,33.0,24.2,19.0,60,44,25,0.00,40.00,16,7,25,0.00
2013-4-7,55.0,39.6,33.0,35.0,27.2,23.0,93,62,34,0.00,40.00,18,5,25,0.10
2013-4-8,33.0,27.1,21.0,23.0,10.3,4.0,65,49,38,0.00,40.00,22,17,37,0.10
2013-4-9,42.0,24.8,16.0,8.0,4.4,0.0,56,43,20,0.00,40.00,11,5,23,0.00
2013-4-10,56.0,40.5,28.0,34.0,19.1,6.0,71,44,25,0.00,40.00,13,5,25,0.00
2013-4-11,52.0,44.7,38.0,29.0,16.0,8.0,55,32,19,0.00,40.00,25,12,53,0.00
2013-4-12,55.0,38.3,29.0,22.0,14.6,4.0,58,41,14,0.00,40.00,15,5,31,0.00
2013-4-13,51.0,40.5,32.0,30.0,15.5,-4.0,66,38,14,0.00,40.00,33,9,53,0.00
2013-4-14,38.0,30.4,24.0,22.0,13.4,7.0,85,50,35,0.00,40.00,17,10,28,0.04
2013-4-15,34.0,26.4,21.0,8.0,5.2,2.0,53,41,25,0.00,40.00,19,14,30,0.01
2013-4-16,33.0,26.1,21.0,6.0,3.6,-2.0,48,38,23,0.00,40.00,20,14,31,0.00
2013-4-17,38.0,24.9,16.0,10.0,2.8,-11.0,67,42,12,0.00,40.00,16,8,26,0.00
2013-4-18,50.0,34.8,17.0,13.0,6.8,-1.0,46,32,21,0.00,40.00,11,4,19,0.00
2013-4-19,50.0,41.4,34.0,29.0,20.4,13.0,61,43,30,0.00,40.00,12,6,22,0.00
2013-4-20,58.0,44.3,37.0,29.0,23.5,13.0,70,47,18,0.00,40.00,19,5,40,0.00
2013-4-21,42.0,30.3,23.0,21.0,16.9,10.0,73,58,36,0.00,40.00,20,13,36,0.00
2013-4-22,42.0,28.2,23.0,11.0,7.0,-3.0,58,42,19,0.00,40.00,14,11,24,0.00
2013-4-23,48.0,33.8,17.0,15.0,7.7,2.0,53,35,17,0.00,40.00,12,5,24,0.00
2013-4-24,60.0,45.4,29.0,17.0,13.0,5.0,50,29,15,0.00,40.00,11,5,19,0.00
2013-4-25,66.0,53.1,41.0,16.0,10.9,4.0,28,19,11,0.00,40.00,16,6,28,0.00
2013-4-26,71.0,60.2,40.0,22.0,18.8,16.0,41,21,12,0.00,40.00,14,8,27,0.00
2013-4-27,73.0,61.5,53.0,23.0,16.7,9.0,29,19,9,0.00,40.00,21,10,38,0.00
2013-4-28,65.0,52.4,45.0,31.0,23.1,11.0,46,33,13,0.00,40.00,14,6,31,0.00
2013-4-29,57.0,49.5,41.0,27.0,17.7,3.0,40,29,12,0.00,40.00,28,12,53,0.00
2013-4-30,42.0,35.4,29.0,20.0,11.6,-2.0,59,38,20,0.00,40.00,19,11,35,0.00
2013-5-1,47.0,35.4,22.0,14.0,9.1,4.0,63,36,18,0.00,40.00,10,4,22,0.00
2013-5-2,67.0,50.3,29.0,10.0,5.3,1.0,41,19,7,0.00,40.00,14,5,33,0.00
2013-5-3,57.0,49.6,43.0,29.0,20.9,3.0,56,34,14,0.00,40.00,17,9,32,0.00
2013-5-4,55.0,48.2,43.0,31.0,29.4,27.0,62,48,36,0.00,40.00,17,12,28,0.00
2013-5-5,69.0,53.8,36.0,28.0,25.1,22.0,63,37,19,0.00,40.00,8,4,18,0.00
2013-5-6,76.0,57.6,39.0,29.0,21.5,9.0,51,29,8,0.00,40.00,7,4,21,0.00
2013-5-7,70.0,61.8,44.0,29.0,25.7,18.0,41,26,19,0.00,40.00,20,12,35,0.00
2013-5-8,75.0,61.3,45.0,32.0,27.9,22.0,50,30,14,0.00,40.00,14,5,25,0.00
2013-5-9,78.0,63.1,48.0,31.0,28.3,24.0,45,28,17,0.00,40.00,22,6,42,0.00
2013-5-10,69.0,59.1,46.0,33.0,27.0,23.0,44,30,20,0.00,40.00,25,11,38,0.00
2013-5-11,79.0,61.1,42.0,30.0,25.4,-99.9,44,28,17,0.00,40.00,12,5,28,0.00
2013-5-12,85.0,72.7,52.0,35.0,31.6,24.0,41,23,12,0.00,40.00,12,6,23,0.00
2013-5-13,87.0,72.2,54.0,40.0,32.5,15.0,43,27,8,0.00,40.00,28,10,46,0.00
2013-5-14,71.0,57.9,45.0,37.0,23.2,10.0,49,29,10,0.00,40.00,27,12,49,0.00
2013-5-15,72.0,58.9,45.0,23.0,19.4,15.0,32,22,16,0.00,40.00,15,6,27,0.00
2013-5-16,62.0,49.9,48.0,43.0,17.2,-99.9,78,53,19,0.00,40.00,15,7,34,0.14
2013-5-17,58.0,48.2,41.0,47.0,37.0,-99.9,100,76,52,0.00,40.00,10,3,14,0.18
2013-5-18,59.0,50.8,45.0,48.0,43.5,38.0,100,78,47,0.00,40.00,13,4,23,0.30
2013-5-19,55.0,50.3,46.0,43.0,38.2,36.0,83,64,51,0.00,40.00,19,10,31,0.02
2013-5-20,63.0,53.7,49.0,42.0,39.3,37.0,71,59,42,0.00,40.00,14,8,28,0.01
2013-5-21,74.0,59.5,41.0,40.0,33.4,27.0,89,44,21,0.00,40.00,15,8,26,0.00
2013-5-22,61.0,52.1,45.0,49.0,36.6,30.0,92,57,33,0.00,40.00,22,8,37,0.16
2013-5-23,51.0,44.6,38.0,51.0,39.2,34.0,99,83,55,0.00,40.00,12,6,20,0.41
2013-5-24,62.0,50.7,39.0,40.0,32.0,24.0,99,56,23,0.00,40.00,19,10,36,0.07
2013-5-25,70.0,52.5,37.0,37.0,33.8,30.0,76,51,25,0.00,40.00,17,6,29,0.01
2013-5-26,70.0,56.3,43.0,45.0,37.6,32.0,98,53,28,0.00,40.00,10,5,51,0.09
2013-5-27,61.0,50.3,41.0,46.0,42.6,40.0,99,77,48,0.00,40.00,8,4,26,0.18
2013-5-28,61.0,51.9,46.0,50.0,43.0,38.0,99,73,54,0.00,40.00,10,5,23,0.72
2013-5-29,64.0,53.8,46.0,45.0,41.5,36.0,93,65,41,0.00,40.00,12,3,25,0.29
2013-5-30,60.0,53.2,48.0,44.0,33.4,25.0,79,49,35,0.00,40.00,15,8,32,0.07
2013-5-31,55.0,49.8,46.0,38.0,32.5,26.0,73,52,36,0.00,40.00,15,9,29,0.00
2013-6-1,68.0,54.2,38.0,38.0,33.6,26.0,88,51,22,0.00,40.00,10,5,22,0.00
2013-6-2,70.0,54.6,47.0,48.0,39.8,33.0,99,61,33,0.00,40.00,17,5,26,0.44
2013-6-3,58.0,47.4,42.0,48.0,40.3,34.0,99,78,43,0.00,40.00,17,8,33,0.41
2013-6-4,59.0,49.0,40.0,39.0,34.0,31.0,86,58,38,0.00,40.00,16,10,25,0.01
2013-6-5,75.0,58.1,40.0,41.0,37.3,31.0,78,49,29,0.00,40.00,11,5,20,0.00
2013-6-6,79.0,65.0,50.0,44.0,40.8,37.0,66,43,27,0.00,40.00,8,3,15,0.00
2013-6-7,79.0,66.4,54.0,49.0,43.2,38.0,64,45,26,0.00,40.00,16,4,32,0.00
2013-6-8,81.0,67.5,54.0,42.0,35.0,23.0,58,34,15,0.00,40.00,17,8,35,0.00
2013-6-9,89.0,70.1,51.0,39.0,32.4,22.0,48,27,10,0.00,40.00,19,8,32,0.00
2013-6-10,81.0,70.2,53.0,44.0,31.0,21.0,39,24,18,0.00,40.00,19,6,30,0.00
2013-6-11,73.0,61.9,53.0,52.0,45.4,41.0,82,56,37,0.00,40.00,12,5,45,0.13
2013-6-12,80.0,61.7,49.0,55.0,48.6,44.0,96,67,29,0.00,40.00,19,7,33,0.11
2013-6-13,62.0,55.0,51.0,56.0,45.3,37.0,99,71,50,0.00,40.00,21,8,35,0.18
2013-6-14,65.0,53.0,41.0,42.0,33.3,26.0,79,51,24,0.00,40.00,14,6,27,0.01
2013-6-15,75.0,61.0,42.0,36.0,31.3,28.0,61,36,19,0.00,40.00,15,7,30,0.00
2013-6-16,78.0,70.1,50.0,43.0,35.8,28.0,49,30,20,0.00,40.00,12,7,20,0.00
2013-6-17,85.0,67.7,50.0,47.0,42.2,34.0,70,43,20,0.00,40.00,14,6,22,0.00
2013-6-18,92.0,77.6,60.0,49.0,41.1,33.0,57,30,13,0.00,40.00,16,8,30,0.00
2013-6-19,79.0,64.1,47.0,49.0,45.4,35.0,91,55,28,0.00,40.00,19,9,34,0.57
2013-6-20,58.0,50.7,47.0,40.0,33.4,30.0,77,52,38,0.00,40.00,28,15,43,0.57
2013-6-22,61.0,55.5,51.0,45.0,43.2,40.0,74,63,54,0.00,40.00,17,10,25,0.12
2013-6-23,77.0,61.4,42.0,45.0,39.8,36.0,81,49,25,0.00,40.00,17,6,28,0.03
2013-6-24,80.0,63.2,52.0,49.0,43.7,39.0,74,51,26,0.00,40.00,15,5,28,0.02
2013-6-25,77.0,64.1,53.0,51.0,45.2,36.0,91,55,25,0.00,40.00,17,6,34,0.06
2013-6-26,79.0,65.8,58.0,46.0,43.6,40.0,60,46,27,0.00,40.00,16,8,26,0.00
2013-6-27,86.0,69.3,52.0,48.0,45.4,42.0,71,46,26,0.00,40.00,10,6,19,0.00
2013-6-28,90.0,77.5,57.0,49.0,45.2,40.0,59,34,23,0.00,40.00,8,5,15,0.00
2013-6-29,89.0,75.3,59.0,54.0,49.5,44.0,68,42,24,0.00,40.00,16,6,33,0.00
2013-6-30,92.0,79.5,60.0,55.0,50.9,47.0,66,39,25,0.00,40.00,16,5,24,0.00
2013-7-1,95.0,81.1,61.0,57.0,49.9,41.0,65,37,16,0.00,40.00,9,5,18,0.00
2013-7-2,97.0,79.2,62.0,61.0,51.7,47.0,63,42,21,0.00,40.00,11,6,22,0.11
2013-7-3,94.0,82.3,67.0,58.0,48.1,40.0,56,33,17,0.00,40.00,17,8,28,0.11
2013-7-4,87.0,78.3,61.0,49.0,45.4,41.0,50,32,25,0.00,40.00,10,6,20,0.00
2013-7-5,86.0,72.3,62.0,56.0,43.1,36.0,77,38,21,0.00,40.00,12,6,44,0.09
2013-7-6,84.0,67.4,53.0,52.0,46.9,40.0,85,52,24,0.00,40.00,13,5,24,0.09
2013-7-7,85.0,70.0,56.0,55.0,48.5,43.0,69,49,27,0.00,40.00,11,4,26,0.07
2013-7-8,82.0,68.2,57.0,53.0,47.1,38.0,76,49,28,0.00,40.00,18,6,35,0.13
2013-7-9,85.0,71.1,53.0,48.0,41.2,35.0,63,37,18,0.00,40.00,13,5,23,0.06
2013-7-10,97.0,81.1,60.0,46.0,32.8,-99.9,42,21,10,0.00,40.00,16,10,29,0.00
2013-7-11,84.0,75.3,65.0,44.0,40.0,36.0,44,29,19,0.00,40.00,20,9,38,0.00
2013-7-12,89.0,73.2,57.0,44.0,40.8,35.0,48,33,18,0.00,40.00,15,9,39,0.02
2013-7-13,82.0,71.0,54.0,46.0,39.8,33.0,63,35,18,0.00,40.00,19,11,35,0.02
2013-7-14,86.0,78.0,59.0,47.0,43.8,38.0,50,31,21,0.00,40.00,14,9,24,0.00
2013-7-15,95.0,77.8,59.0,47.0,39.8,29.0,60,31,10,0.00,40.00,19,9,28,0.00
2013-7-16,85.0,77.8,68.0,47.0,45.9,44.0,46,33,26,0.00,40.00,13,8,22,0.00
2013-7-17,91.0,70.8,58.0,64.0,54.5,46.0,95,60,28,0.00,40.00,8,5,36,0.48
2013-7-18,88.0,74.2,57.0,58.0,45.6,35.0,85,43,16,0.00,40.00,15,6,23,0.38
2013-7-19,89.0,76.8,58.0,45.0,36.4,26.0,50,26,12,0.00,40.00,21,8,34,0.00
2013-7-20,89.0,73.8,56.0,47.0,33.8,-99.9,42,25,15,0.00,40.00,9,5,19,0.00
2013-7-21,91.0,79.6,61.0,37.0,33.0,29.0,32,19,13,0.00,40.00,12,6,19,0.00
2013-7-22,93.0,79.8,59.0,39.0,31.0,22.0,33,19,8,0.00,40.00,15,8,37,0.00
2013-7-23,89.0,76.9,58.0,40.0,34.6,29.0,44,23,12,0.00,40.00,9,6,16,0.00
2013-7-24,93.0,81.2,60.0,47.0,37.4,23.0,47,24,9,0.00,40.00,19,8,32,0.00
2013-7-25,91.0,77.4,63.0,52.0,44.8,38.0,57,34,17,0.00,40.00,19,7,29,0.00
2013-7-26,91.0,75.5,58.0,50.0,42.5,23.0,64,36,11,0.00,40.00,12,6,19,0.00
2013-7-27,91.0,77.0,64.0,47.0,39.8,26.0,40,28,13,0.00,40.00,21,9,29,0.06
2013-7-28,81.0,68.6,56.0,52.0,46.9,40.0,72,48,28,0.00,40.00,13,5,22,0.15
2013-7-29,77.0,65.4,54.0,48.0,45.0,42.0,69,49,31,0.00,40.00,19,8,28,0.03
2013-7-30,77.0,65.1,55.0,50.0,46.4,43.0,68,52,31,0.00,40.00,8,3,35,0.02
2013-7-31,89.0,71.8,53.0,47.0,41.3,32.0,70,39,13,0.00,40.00,13,6,30,0.02
2013-8-1,81.0,68.0,58.0,53.0,46.3,40.0,77,49,30,0.00,40.00,23,10,39,0.14
2013-8-2,73.0,62.6,52.0,54.0,48.4,41.0,99,64,33,0.00,40.00,20,7,36,0.27
2013-8-3,79.0,66.9,50.0,48.0,43.7,39.0,74,45,30,0.00,40.00,14,7,26,0.01
2013-8-4,82.0,70.4,53.0,50.0,42.4,35.0,68,40,20,0.00,40.00,12,6,19,0.00
2013-8-5,87.0,73.4,57.0,47.0,40.5,37.0,52,33,18,0.00,40.00,17,9,36,0.00
2013-8-6,83.0,70.0,53.0,48.0,42.1,36.0,68,39,19,0.00,40.00,11,6,22,0.00
2013-8-7,86.0,71.7,55.0,41.0,37.2,31.0,52,31,15,0.00,40.00,11,5,19,0.00
2013-8-8,84.0,72.9,56.0,49.0,44.0,36.0,55,37,21,0.00,40.00,14,6,24,0.00
2013-8-9,85.0,69.4,59.0,56.0,48.8,45.0,70,50,26,0.00,40.00,16,5,18,0.04
2013-8-10,87.0,70.6,57.0,51.0,45.8,33.0,72,45,19,0.00,40.00,18,6,50,0.04
2013-8-11,88.0,68.4,58.0,47.0,42.6,39.0,52,41,22,0.00,40.00,10,5,15,0.15
2013-8-12,88.0,69.8,55.0,49.0,42.3,35.0,63,41,16,0.00,40.00,16,7,41,0.07
2013-8-13,87.0,69.8,57.0,51.0,41.9,-99.9,70,41,21,0.00,40.00,18,7,38,0.14
2013-8-14,86.0,68.3,53.0,51.0,42.1,-99.9,78,45,20,0.00,40.00,10,5,17,0.15
2013-8-15,94.0,67.5,57.0,43.0,24.5,-99.9,45,26,14,0.00,40.00,10,5,17,0.00
2013-8-16,100.0,83.8,63.0,38.0,25.2,-99.9,35,14,8,0.00,40.00,14,10,26,0.00
2013-8-17,89.0,80.1,60.0,46.0,38.4,-99.9,42,24,18,0.00,40.00,8,5,16,0.00
2013-8-18,91.0,83.7,72.0,47.0,43.0,37.0,29,24,20,0.00,40.00,10,6,17,0.00
2013-8-19,95.0,76.5,60.0,42.0,19.3,-99.9,41,19,9,0.00,40.00,16,8,23,0.00
2013-8-20,87.0,77.7,58.0,41.0,35.1,-99.9,38,23,19,0.00,40.00,13,7,26,0.00
2013-8-21,87.0,76.3,57.0,40.0,35.2,31.0,44,24,14,0.00,40.00,9,5,20,0.00
2013-8-22,90.0,75.8,57.0,47.0,42.6,36.0,49,32,22,0.00,40.00,24,6,37,0.00
2013-8-23,82.0,69.8,60.0,55.0,48.3,42.0,68,48,28,0.00,40.00,22,8,43,0.05
2013-8-24,87.0,71.2,57.0,51.0,42.1,-99.9,69,39,20,0.00,40.00,24,7,40,0.02
2013-8-25,92.0,71.2,57.0,48.0,44.4,41.0,56,41,19,0.00,40.00,16,10,31,0.16
2013-8-26,89.0,71.5,57.0,51.0,45.4,38.0,63,43,20,0.00,40.00,15,9,37,0.16
2013-8-27,84.0,65.2,57.0,48.0,46.7,45.0,66,54,28,0.00,40.00,18,6,36,0.05
2013-8-28,88.0,77.5,68.0,53.0,49.1,47.0,56,39,25,0.00,40.00,23,10,36,0.00
2013-8-29,93.0,75.0,58.0,53.0,47.4,43.0,73,44,19,0.00,40.00,14,7,58,0.11
2013-8-30,87.0,71.6,57.0,54.0,48.1,38.0,72,48,20,0.00,40.00,17,7,58,0.11
2013-8-31,83.0,69.7,55.0,42.0,37.6,-99.9,55,33,22,0.00,40.00,10,5,24,0.00
2013-9-1,91.0,73.0,53.0,42.0,36.2,33.0,50,29,14,0.00,40.00,9,6,17,0.00
2013-9-2,90.0,76.9,59.0,45.0,38.3,32.0,38,26,15,0.00,40.00,21,7,29,0.00
2013-9-3,88.0,72.8,59.0,54.0,45.5,41.0,72,41,23,0.00,40.00,12,4,29,0.03
2013-9-4,88.0,72.3,60.0,59.0,52.7,48.0,79,54,27,0.00,40.00,12,6,23,0.03
2013-9-5,85.0,72.5,59.0,58.0,50.3,45.0,77,48,30,0.00,40.00,24,8,38,0.02
2013-9-6,88.0,69.8,58.0,58.0,53.1,49.0,80,58,30,0.00,40.00,19,6,30,0.05
2013-9-7,83.0,65.7,57.0,56.0,51.4,-99.9,89,64,33,0.00,40.00,13,5,34,0.51
2013-9-8,80.0,62.0,54.0,58.0,51.0,40.0,100,71,28,0.00,40.00,23,8,35,0.52
2013-9-9,76.0,61.2,53.0,47.0,42.9,39.0,62,52,36,0.00,40.00,12,3,19,0.01
2013-9-10,81.0,66.2,52.0,47.0,42.2,35.0,71,44,25,0.00,40.00,7,4,15,0.00
2013-9-11,86.0,76.2,52.0,43.0,40.0,35.0,64,29,20,0.00,40.00,12,7,31,0.00
2013-9-12,87.0,69.2,55.0,44.0,41.7,40.0,58,39,22,0.00,40.00,13,6,19,0.00
2013-9-13,82.0,72.8,59.0,49.0,45.1,42.0,54,38,29,0.00,40.00,9,3,18,0.00
2013-9-14,77.0,67.7,61.0,48.0,42.8,-99.9,58,42,30,0.00,40.00,20,9,34,0.00
2013-9-15,82.0,70.1,54.0,48.0,45.2,41.0,63,43,29,0.00,40.00,17,7,27,0.00
2013-9-16,80.0,71.1,59.0,48.0,44.9,41.0,60,41,28,0.00,40.00,22,12,42,0.00
2013-9-17,64.0,56.4,50.0,53.0,45.0,38.0,91,67,47,0.00,40.00,15,5,23,0.23
2013-9-18,56.0,51.3,48.0,48.0,41.7,31.0,96,71,44,0.00,40.00,12,5,24,0.24
2013-9-19,65.0,54.0,44.0,39.0,35.6,33.0,72,52,31,0.00,40.00,10,4,21,0.01
2013-9-20,77.0,69.5,51.0,34.0,31.8,25.0,48,25,19,0.00,40.00,16,10,28,0.01
2013-9-21,83.0,72.3,59.0,33.0,28.0,-99.9,34,21,14,0.00,40.00,15,9,28,0.00
2013-9-22,68.0,57.8,50.0,44.0,36.8,29.0,75,48,31,0.00,40.00,17,7,35,0.11
2013-9-23,64.0,54.3,46.0,42.0,33.1,27.0,79,48,25,0.00,40.00,16,7,31,0.11
2013-9-24,55.0,48.0,43.0,45.0,36.6,28.0,97,67,44,0.00,40.00,12,5,17,0.21
2013-9-25,49.0,43.0,39.0,41.0,37.1,34.0,97,80,63,0.00,40.00,19,8,31,0.26
2013-9-26,46.0,40.3,37.0,35.0,29.6,25.0,88,66,52,0.00,40.00,18,14,30,0.64
2013-9-27,55.0,43.0,33.0,30.0,27.2,24.0,83,56,35,0.00,40.00,12,6,25,0.04
2013-9-28,60.0,52.0,44.0,36.0,30.4,-99.9,56,45,38,0.00,40.00,20,12,33,0.00
2013-9-29,63.0,53.0,47.0,39.0,33.2,30.0,71,48,32,0.00,40.00,25,14,50,0.00
2013-9-30,57.0,49.5,45.0,39.0,29.1,19.0,76,49,24,0.00,40.00,18,11,60,0.05
2013-10-1,51.0,47.5,45.0,34.0,30.3,28.0,62,51,46,0.00,40.00,11,6,21,0.00
2013-10-2,52.0,44.5,34.0,31.0,27.0,22.0,70,52,35,0.00,40.00,7,4,28,0.01
2013-10-3,41.0,37.6,35.0,36.0,27.5,22.0,88,68,55,0.00,40.00,25,18,39,0.35
2013-10-4,48.0,39.7,34.0,26.0,22.6,20.0,58,51,41,0.00,40.00,20,10,33,0.02
2013-10-5,60.0,42.3,29.0,28.0,25.6,21.0,77,54,30,0.00,40.00,8,3,15,0.00
2013-10-6,72.0,50.2,34.0,33.0,28.6,26.0,73,48,22,0.00,40.00,17,7,23,0.00
2013-10-7,76.0,59.9,44.0,27.0,25.5,22.0,48,29,16,0.00,40.00,21,8,30,0.00
2013-10-8,55.0,47.8,35.0,28.0,25.0,21.0,60,41,29,0.00,40.00,12,6,23,0.00
2013-10-9,60.0,44.2,35.0,30.0,26.5,21.0,66,52,30,0.00,40.00,6,3,11,0.00
2013-10-10,58.0,48.3,33.0,34.0,27.8,23.0,80,47,30,0.00,40.00,19,8,32,0.00
2013-10-11,53.0,44.2,37.0,27.0,21.8,18.0,58,41,29,0.00,40.00,11,5,25,0.00
2013-10-12,50.0,38.9,30.0,28.0,21.9,-99.9,68,53,38,0.00,40.00,8,4,14,0.00
2013-10-13,51.0,40.5,32.0,29.0,26.6,24.0,79,59,39,0.00,40.00,14,7,25,0.00
2013-10-14,48.0,41.8,33.0,28.0,25.7,21.0,64,53,42,0.00,40.00,14,10,24,0.00
2013-10-15,52.0,37.8,27.0,28.0,24.3,18.0,84,60,37,0.00,40.00,12,6,20,0.00
2013-10-16,44.0,36.8,29.0,31.0,23.5,18.0,68,59,43,0.00,40.00,15,5,30,0.00
2013-10-17,44.0,38.3,33.0,33.0,27.0,20.0,77,64,45,0.00,40.00,20,6,35,0.00
2013-10-18,56.0,41.9,29.0,28.0,24.2,20.0,77,51,33,0.00,40.00,10,3,29,0.00
2013-10-19,58.0,45.3,32.0,27.0,21.4,-99.9,61,42,23,0.00,40.00,16,3,30,0.00
2013-10-20,57.0,46.0,39.0,33.0,29.0,22.0,65,52,32,0.00,40.00,16,4,30,0.00
2013-10-21,61.0,45.4,32.0,33.0,28.9,25.0,75,54,33,0.00,40.00,6,2,10,0.00
2013-10-22,64.0,47.2,35.0,33.0,28.5,24.0,75,51,27,0.00,40.00,8,2,12,0.00
2013-10-23,65.0,46.0,34.0,32.0,26.6,22.0,66,48,29,0.00,40.00,6,3,14,0.00
2013-10-24,63.0,43.4,32.0,32.0,28.2,26.0,80,58,29,0.00,40.00,8,3,15,0.00
2013-10-25,63.0,47.3,32.0,31.0,26.7,23.0,71,47,28,0.00,40.00,6,3,11,0.00
2013-10-26,65.0,43.9,32.0,31.0,22.8,-99.9,65,46,28,0.00,40.00,8,3,11,0.00
2013-10-27,60.0,44.0,32.0,29.0,22.4,16.0,58,43,27,0.00,40.00,27,11,42,0.00
2013-10-28,34.0,27.7,24.0,20.0,13.7,-99.9,77,58,52,0.00,40.00,23,17,40,0.00
2013-10-29,34.0,26.8,21.0,19.0,15.9,12.0,73,64,51,0.00,40.00,12,5,19,0.00
2013-10-30,49.0,33.1,22.0,25.0,19.8,16.0,80,60,37,0.00,40.00,6,2,12,0.00
2013-10-31,50.0,40.3,32.0,28.0,23.0,19.0,63,50,38,0.00,40.00,28,8,48,0.00
2013-11-1,55.0,42.4,34.0,27.0,22.7,19.0,61,46,31,0.00,40.00,16,6,29,0.00
2013-11-2,58.0,45.6,33.0,31.0,23.8,-99.9,72,46,27,0.00,40.00,18,9,42,0.00
2013-11-3,38.0,34.7,28.0,28.0,17.0,9.0,76,50,33,0.00,40.00,9,4,19,0.00
2013-11-4,39.0,28.7,24.0,25.0,20.5,13.0,86,72,49,0.00,40.00,7,2,12,0.00
2013-11-5,41.0,29.8,20.0,20.0,10.6,7.0,70,46,27,0.00,40.00,15,5,27,0.00
2013-11-6,43.0,36.7,32.0,29.0,21.4,17.0,81,55,36,0.00,40.00,13,5,24,0.00
2013-11-7,53.0,43.3,33.0,31.0,25.2,19.0,59,49,40,0.00,40.00,21,12,35,0.03
2013-11-8,44.0,40.4,36.0,29.0,23.4,19.0,72,51,42,0.00,40.00,21,7,41,0.03
2013-11-9,46.0,36.9,30.0,23.0,18.4,-99.9,63,49,35,0.00,40.00,13,3,18,0.00
2013-11-10,52.0,41.3,34.0,31.0,26.7,22.0,71,56,42,0.00,40.00,10,3,16,0.00
2013-11-11,49.0,37.0,31.0,31.0,27.3,24.0,81,69,50,0.00,40.00,10,4,14,0.00
2013-11-12,60.0,45.5,31.0,31.0,27.6,25.0,81,52,33,0.00,40.00,6,3,20,0.00
2013-11-13,55.0,46.0,39.0,31.0,25.1,17.0,60,45,32,0.00,40.00,12,4,22,0.00
2013-11-14,42.0,36.9,31.0,21.0,18.5,15.0,56,47,38,0.00,40.00,9,3,21,0.00
2013-11-15,43.0,36.8,30.0,19.0,15.3,13.0,55,42,32,0.00,40.00,15,6,27,0.00
2013-11-16,44.0,35.4,32.0,26.0,18.9,-99.9,75,53,37,0.00,40.00,17,8,30,0.00
2013-11-17,39.0,34.0,28.0,16.0,12.5,9.0,51,41,31,0.00,40.00,17,9,30,0.00
2013-11-18,54.0,42.0,30.0,17.0,12.7,9.0,48,31,18,0.00,40.00,16,11,25,0.00
2013-11-19,55.0,48.7,39.0,29.0,22.7,16.0,51,36,29,0.00,40.00,19,11,33,0.00
2013-11-20,46.0,19.7,5.0,28.0,9.0,-2.0,75,64,47,0.00,40.00,16,8,29,0.00
2013-11-21,25.0,12.7,2.0,9.0,3.7,-5.0,75,67,51,0.00,40.00,7,2,12,0.00
2013-11-22,32.0,18.1,8.0,12.0,5.4,1.0,74,58,37,0.00,40.00,4,2,10,0.00
2013-11-23,37.0,22.2,12.0,14.0,7.5,-99.9,72,57,38,0.00,40.00,8,2,13,0.00
2013-11-24,36.0,26.2,17.0,18.0,14.0,9.0,72,60,46,0.00,40.00,5,1,9,0.00
2013-11-25,45.0,32.4,24.0,21.0,17.5,15.0,70,55,33,0.00,40.00,7,3,10,0.00
2013-11-26,47.0,37.3,24.0,24.0,21.3,16.0,72,53,39,0.00,40.00,6,3,14,0.00
2013-11-27,46.0,36.1,31.0,27.0,21.5,18.0,61,55,41,0.00,40.00,6,2,10,0.00
2013-11-28,44.0,31.7,23.0,23.0,19.4,16.0,77,61,41,0.00,40.00,6,2,11,0.00
2013-11-29,45.0,34.2,25.0,24.0,19.8,17.0,73,56,41,0.00,40.00,8,3,13,0.00
2013-11-30,44.0,38.3,34.0,26.0,22.1,-99.9,60,53,47,0.00,40.00,7,3,12,0.00
2013-12-1,47.0,42.4,37.0,30.0,25.9,23.0,66,52,40,0.00,40.00,23,11,36,0.00
2013-12-2,45.0,33.2,11.0,33.0,23.6,-2.0,94,68,49,0.00,40.00,28,14,43,0.02
2013-12-3,11.0,6.0,0.0,-2.0,-7.2,-11.0,60,53,44,0.00,40.00,25,16,40,0.01
2013-12-4,8.0,2.3,-6.0,-8.0,-10.7,-15.0,66,54,46,0.00,40.00,17,10,29,0.00
2013-12-5,7.0,-2.4,-11.0,-9.0,-13.0,-19.0,69,60,47,0.00,40.00,9,2,14,0.00
2013-12-6,-1.0,-7.5,-12.0,-15.0,-20.2,-23.0,61,53,40,0.00,40.00,15,7,23,0.00
2013-12-7,-4.0,-11.8,-18.0,-18.0,-23.3,-99.9,67,59,49,0.00,40.00,7,2,11,0.00
2013-12-8,-1.0,-8.9,-16.0,-9.0,-17.1,-25.0,71,66,62,0.00,40.00,5,1,9,0.00
2013-12-9,20.0,3.5,-11.0,8.0,-4.6,-18.0,74,68,60,0.00,40.00,6,1,10,0.00
2013-12-10,25.0,20.2,14.0,18.0,12.5,5.0,83,72,60,0.00,40.00,7,2,11,0.00
2013-12-11,28.0,21.5,17.0,11.0,9.3,7.0,73,59,47,0.00,40.00,12,3,19,0.00
2013-12-12,39.0,28.8,22.0,17.0,15.1,11.0,66,57,41,0.00,40.00,12,4,22,0.03
2013-12-13,39.0,31.5,26.0,22.0,18.1,15.0,65,57,49,0.00,40.00,9,3,16,0.02
2013-12-14,42.0,35.5,31.0,24.0,19.1,-99.9,63,54,43,0.00,40.00,16,6,31,0.02
2013-12-15,49.0,39.9,34.0,22.0,18.3,14.0,55,42,33,0.00,40.00,17,6,31,0.01
2013-12-16,49.0,37.4,31.0,20.0,18.7,16.0,60,47,31,0.00,40.00,7,5,14,0.00
2013-12-17,55.0,41.3,31.0,21.0,17.3,14.0,55,39,25,0.00,40.00,18,9,32,0.00
2013-12-18,48.0,41.9,29.0,23.0,17.1,11.0,67,38,26,0.00,40.00,13,6,26,0.00
2013-12-19,29.0,11.0,3.0,17.0,-0.8,-4.0,72,58,44,0.00,40.00,27,11,43,0.00
2013-12-20,24.0,10.2,0.0,18.0,2.6,-6.0,79,71,58,0.00,40.00,12,3,20,0.00
2013-12-21,31.0,24.8,21.0,19.0,16.2,-99.9,86,72,57,0.00,40.00,12,2,23,0.00
2013-12-22,26.0,20.8,12.0,22.0,14.1,7.0,89,75,64,0.00,40.00,6,1,11,0.00
2013-12-23,44.0,28.2,16.0,31.0,20.2,11.0,85,73,49,0.00,40.00,17,4,49,0.16
2013-12-24,41.0,33.5,26.0,17.0,13.4,10.0,52,43,33,0.00,40.00,28,7,69,0.18
2013-12-25,35.0,25.3,14.0,15.0,10.7,4.0,64,54,40,0.00,40.00,8,3,15,0.00
2013-12-26,45.0,34.8,29.0,25.0,18.4,12.0,59,51,40,0.00,40.00,7,2,11,0.00
2013-12-27,48.0,38.9,30.0,23.0,20.5,17.0,65,48,35,0.00,40.00,22,7,27,0.00
2013-12-28,42.0,24.5,16.0,22.0,9.9,-99.9,72,56,33,0.00,40.00,26,8,44,0.00
2013-12-29,32.0,23.1,14.0,17.0,12.4,8.0,76,63,50,0.00,40.00,7,2,14,0.00
2013-12-30,43.0,36.1,31.0,23.0,20.6,17.0,60,53,42,0.00,40.00,16,5,23,0.00
2013-12-31,42.0,38.1,33.0,31.0,24.8,20.0,69,58,47,0.00,40.00,16,6,25,0.00
2014-1-1,40.0,34.8,27.0,22.0,15.6,13.0,64,45,40,0.00,40.00,20,10,36,0.00
2014-1-2,44.0,33.1,24.0,22.0,16.6,12.0,66,51,38,0.00,40.00,25,8,33,0.00